Weather History for Kankakee, IL

Change the Weather History Date:

Tuesday, February 4, 2014

  Actual Average Record
Temperature  
Mean Temperature 10 °F -  
Max Temperature 21 °F 33 °F 55 °F (1992)
Min Temperature -1 °F 14 °F -7 °F (1979)
Degree Days  
Heating Degree Days 55    
Moisture  
Dew Point 8 °F    
Average Humidity 81    
Maximum Humidity 90    
Minimum Humidity 61    
Precipitation  
Precipitation 0.00 in - - ()
Sea Level Pressure  
Sea Level Pressure 30.28 in    
Wind  
Wind Speed 5 mph (NE)    
Max Wind Speed 17 mph    
Max Gust Speed 23 mph    
Visibility 8 miles    
Events Snow    
Averages and records for this station are not official NWS values.
T = Trace of Precipitation, MM = Missing Value Source: NWS Daily Summary

Daily Weather History Graph

Daily Weather History Graph

Search for Another Location

Airport:

Trip Planner

Search our weather history database for the weather conditions in past years. The results will help you decide how hot, cold, wet, or windy it might be!

Date:

Astronomy

Feb. 04, 2014 Rise Set
Actual Time 6:59 AM CST 5:12 PM CST
Civil Twilight 6:30 AM CST 5:41 PM CST
Nautical Twilight 5:57 AM CST 6:13 PM CST
Astronomical Twilight 5:25 AM CST 6:46 PM CST
Moon 9:33 AM CST (2/4) 11:09 PM CST (2/4)
Length of Visible Light 11h 10m
Length of Day
10h 13m
Waxing Crescent, 29% of the Moon is Illuminated
Feb 4
Waxing Crescent
Feb 6
First Quarter
Feb 14
Full
Feb 22
Last Quarter
Mar 1
New

Hourly Weather History & Observations

Time (CST) Temp. Windchill Dew Point Humidity Pressure Visibility Wind Dir Wind Speed Gust Speed Precip Events Conditions
12:15 AM -0.8 °F - -4.5 °F 84% 30.37 in 10.0 mi Calm Calm - N/A   Clear
12:35 AM -1.3 °F - -5.1 °F 84% 30.37 in 10.0 mi Calm Calm - N/A   Clear
12:55 AM 1.4 °F - -2.2 °F 85% 30.37 in 10.0 mi Calm Calm - N/A   Clear
1:15 AM 0.9 °F - -2.7 °F 85% 30.37 in 10.0 mi Calm Calm - N/A   Clear
1:35 AM 1.0 °F - -2.6 °F 85% 30.37 in 10.0 mi Calm Calm - N/A   Clear
1:55 AM 1.4 °F - -2.2 °F 85% 30.38 in 10.0 mi Calm Calm - N/A   Clear
2:15 AM 2.3 °F - -1.3 °F 85% 30.39 in 10.0 mi Calm Calm - N/A   Clear
2:35 AM 2.5 °F - -1.1 °F 85% 30.39 in 10.0 mi Calm Calm - N/A   Clear
2:55 AM 1.4 °F - -2.4 °F 84% 30.40 in 10.0 mi Calm Calm - N/A   Clear
3:15 AM 0.5 °F - -3.3 °F 84% 30.40 in 10.0 mi Calm Calm - N/A   Clear
3:35 AM 1.4 °F - -2.4 °F 84% 30.40 in 10.0 mi Calm Calm - N/A   Clear
3:55 AM 2.1 °F - -1.5 °F 85% 30.40 in 10.0 mi Calm Calm - N/A   Clear
4:15 AM 1.9 °F - -1.8 °F 84% 30.39 in 10.0 mi Calm Calm - N/A   Clear
4:35 AM 2.3 °F - -1.3 °F 85% 30.39 in 10.0 mi Calm Calm - N/A   Clear
4:55 AM 3.7 °F -3.6 °F 0.1 °F 85% 30.37 in 10.0 mi NE 3.5 mph - N/A   Clear
5:15 AM 4.1 °F - 0.3 °F 84% 30.39 in 10.0 mi Calm Calm - N/A   Clear
5:35 AM 4.1 °F -3.2 °F 0.3 °F 84% 30.39 in 10.0 mi NNE 3.5 mph - N/A   Clear
5:55 AM 4.6 °F -2.5 °F 0.5 °F 83% 30.40 in 10.0 mi North 3.5 mph - N/A   Clear
6:15 AM 5.0 °F - 1.0 °F 84% 30.41 in 10.0 mi Calm Calm - N/A   Clear
6:35 AM 5.5 °F - 1.4 °F 83% 30.41 in 10.0 mi Calm Calm - N/A   Clear
6:55 AM 5.4 °F - 1.4 °F 84% 30.41 in 10.0 mi Calm Calm - N/A   Clear
7:15 AM 5.2 °F -3.8 °F 1.2 °F 84% 30.40 in 10.0 mi NNE 4.6 mph - N/A   Clear
7:35 AM 6.8 °F -2.0 °F 2.1 °F 81% 30.38 in 10.0 mi NE 4.6 mph - N/A   Clear
7:55 AM 8.2 °F -1.8 °F 3.2 °F 80% 30.38 in 10.0 mi NE 5.8 mph - N/A   Clear
8:15 AM 9.3 °F -2.8 °F 3.9 °F 79% 30.39 in 10.0 mi NE 8.1 mph - N/A   Clear
8:35 AM 9.9 °F - 3.6 °F 76% 30.40 in 10.0 mi Calm Calm - N/A   Clear
8:55 AM 11.5 °F - 4.3 °F 73% 30.41 in 10.0 mi Calm Calm - N/A   Clear
9:15 AM 12.2 °F - 3.2 °F 67% 30.40 in 10.0 mi Calm Calm - N/A   Scattered Clouds
9:35 AM 13.8 °F 4.9 °F 2.7 °F 61% 30.39 in 10.0 mi NE 5.8 mph - N/A   Scattered Clouds
9:55 AM 14.7 °F 3.8 °F 5.0 °F 65% 30.36 in 10.0 mi NE 8.1 mph - N/A   Clear
10:15 AM 15.6 °F 4.9 °F 7.3 °F 70% 30.34 in 10.0 mi NE 8.1 mph - N/A   Clear
10:35 AM 17.1 °F 7.6 °F 8.6 °F 69% 30.37 in 10.0 mi NE 6.9 mph - N/A   Scattered Clouds
10:55 AM 17.6 °F - 8.4 °F 67% 30.37 in 10.0 mi Calm Calm - N/A   Mostly Cloudy
11:15 AM 17.6 °F 10.7 °F 10.4 °F 73% 30.35 in 10.0 mi NE 4.6 mph - N/A   Overcast
11:35 AM 18.9 °F 8.0 °F 12.0 °F 75% 30.33 in 10.0 mi ENE 9.2 mph - N/A   Overcast
11:55 AM 18.9 °F 7.2 °F 12.0 °F 75% 30.33 in 10.0 mi ENE 10.4 mph - N/A   Overcast
12:15 PM 19.0 °F 7.5 °F 11.5 °F 72% 30.31 in 10.0 mi ENE 10.4 mph - N/A   Overcast
12:35 PM 19.0 °F 7.5 °F 11.3 °F 72% 30.30 in 10.0 mi ENE 10.4 mph - N/A   Overcast
12:55 PM 19.2 °F 7.7 °F 11.8 °F 73% 30.30 in 10.0 mi ENE 10.4 mph - N/A   Overcast
1:15 PM 19.4 °F 7.9 °F 12.4 °F 74% 30.29 in 10.0 mi ENE 10.4 mph - N/A   Overcast
1:35 PM 19.9 °F 7.9 °F 12.2 °F 72% 30.28 in 10.0 mi ENE 11.5 mph - N/A   Overcast
1:55 PM 20.3 °F 9.8 °F 12.0 °F 70% 30.29 in 10.0 mi NE 9.2 mph - N/A   Overcast
2:15 PM 20.7 °F 10.2 °F 11.7 °F 68% 30.28 in 10.0 mi NE 9.2 mph - N/A   Overcast
2:35 PM 20.7 °F 11.9 °F 12.2 °F 70% 30.27 in 10.0 mi NE 6.9 mph - N/A   Overcast
2:55 PM 20.7 °F 10.2 °F 12.6 °F 71% 30.26 in 10.0 mi NNE 9.2 mph - N/A   Overcast
3:15 PM 20.7 °F 9.5 °F 11.3 °F 67% 30.25 in 10.0 mi NE 10.4 mph - N/A   Overcast
3:35 PM 20.7 °F 8.2 °F 10.8 °F 66% 30.23 in 10.0 mi NE 12.7 mph - N/A   Overcast
3:55 PM 20.7 °F 7.6 °F 11.3 °F 67% 30.22 in 7.0 mi NE 13.8 mph 17.3 mph N/A Snow Light Snow
4:15 PM 19.6 °F 6.8 °F 14.7 °F 81% 30.24 in 7.0 mi NNE 12.7 mph - N/A   Overcast
4:35 PM 19.4 °F 6.0 °F 15.6 °F 85% 30.24 in 10.0 mi NE 13.8 mph - N/A   Overcast
4:55 PM 19.2 °F 4.7 °F 16.3 °F 89% 30.21 in 1.8 mi NE 16.1 mph - N/A Snow Light Snow
5:15 PM 19.4 °F 6.6 °F 16.7 °F 89% 30.20 in 2.5 mi NE 12.7 mph 19.6 mph N/A Snow Light Snow
5:35 PM 19.4 °F 5.5 °F 16.7 °F 89% 30.20 in 1.8 mi ENE 15.0 mph - N/A Snow Light Snow
6:15 PM 19.2 °F 5.3 °F 16.5 °F 89% 30.19 in 4.0 mi NE 15.0 mph - N/A Snow Light Snow
6:35 PM 19.4 °F 4.5 °F 16.5 °F 89% 30.15 in 2.5 mi NE 17.3 mph - N/A Snow Light Snow
6:55 PM 19.4 °F 6.6 °F 16.7 °F 89% 30.16 in 1.5 mi NE 12.7 mph 23.0 mph N/A Snow Light Snow
7:15 PM 19.2 °F 4.7 °F 16.7 °F 90% 30.11 in 1.8 mi NE 16.1 mph 23.0 mph N/A Snow Light Snow
7:35 PM 19.2 °F 4.7 °F 16.7 °F 90% 30.10 in 1.8 mi NE 16.1 mph - N/A Snow Light Snow
7:55 PM 19.4 °F 5.0 °F 16.7 °F 89% 30.08 in 2.5 mi NE 16.1 mph - N/A Snow Light Snow
8:15 PM 19.4 °F 6.0 °F 16.7 °F 89% 30.10 in 2.5 mi NE 13.8 mph 23.0 mph N/A Snow Light Snow
8:35 PM 19.4 °F 6.0 °F 16.7 °F 89% 30.08 in 4.0 mi NE 13.8 mph 18.4 mph N/A Snow Light Snow
8:55 PM 19.4 °F 6.0 °F 16.7 °F 89% 30.09 in 5.0 mi NE 13.8 mph - N/A Snow Light Snow
9:15 PM 19.4 °F 6.6 °F 16.7 °F 89% 30.08 in 7.0 mi NNE 12.7 mph - N/A   Overcast
9:35 PM 19.8 °F 8.3 °F 16.5 °F 87% 30.07 in 10.0 mi NNE 10.4 mph 17.3 mph N/A   Overcast
9:55 PM 19.9 °F 7.3 °F 16.5 °F 87% 30.07 in 10.0 mi NNE 12.7 mph 19.6 mph N/A   Overcast
10:15 PM 20.1 °F 8.1 °F 16.7 °F 87% 30.07 in 10.0 mi NNE 11.5 mph 18.4 mph N/A   Overcast
10:35 PM 20.1 °F 6.4 °F 16.7 °F 87% 30.03 in 10.0 mi NNE 15.0 mph 21.9 mph N/A   Overcast
10:55 PM 20.3 °F 6.6 °F 17.2 °F 88% 30.03 in 5.0 mi NE 15.0 mph 21.9 mph N/A Snow Light Snow
11:15 PM 20.7 °F 8.2 °F 17.4 °F 87% 30.03 in 7.0 mi NNE 12.7 mph - N/A Snow Light Snow
11:35 PM 21.0 °F 8.6 °F 17.6 °F 87% 30.02 in 7.0 mi NNE 12.7 mph 18.4 mph N/A Snow Light Snow
11:55 PM 21.0 °F 8.6 °F 18.0 °F 88% 30.03 in 4.0 mi NNE 12.7 mph - N/A Snow Light Snow